Weather in Belluno

Italy     46°08′27″N   12°12′44″E
temp.,
°C
wind,
m/s
gust,
m/s
humid.,
%
clouds,
%
prec.,
mm/h
press.,
hPa
HPBL,
m
24 july, sat
sat2423:00+14n229632 2.0 101827
02:00+13n229691 2.2 101833
05:00+13n2296100 0.0 101635
08:00+17n12885 0.0 1015120
11:00+22s226630 0.0 1014967
14:00+22s3372100 0.3 10141095
17:00+20s238898 1.8 1014583
20:00+18sse129474 2.8 101350
25 july, sun
sun2523:00+15nnw119717 2.4 101411
02:00+14n22965 2.8 101437
05:00+13n339611 0.0 101351
08:00+16nne2292100 0.0 101390
11:00+21sse226097 0.1 1012950
14:00+23sse345471 0.2 10111450
17:00+20ssw23814 1.8 1012917
20:00+17nw11891 2.9 101211
26 july, mon
mon2623:00+14n329453 0.4 101438
02:00+13n3493100 2.3 101458
05:00+13n349272 0.8 101365
08:00+15n239228 2.1 101495
11:00+19sse228399 1.9 1014256
14:00+21s1278100 5.1 1014484
17:00+20s238624 2.6 1014597
20:00+17ssw1193100 5.0 101516
27 july, tue
tue2723:00+14n3395100 4.8 101752
02:00+13n2293100 5.3 101727
05:00+12n2293100 0.7 101733
08:00+15n1292100 2.2 101779
11:00+20sse227385 0.6 1017738
14:00+17s2391100 3.1 1017385
17:00+16wsw1195100 6.9 101726
20:00+16s11955 8.4 101627
28 july, wed
wed2823:00+13n229515 0.7 101833
02:00+12n339361 0.8 101842
05:00+12n339287 0.0 101740
08:00+16nne22844 0.0 1017101
11:00+21s23607 0.0 10161130
14:00+23s335528 0.1 10151479
17:00+21s227114 0.4 1015766
20:00+18wsw00902 1.2 101611